Wright-Patt AFB, OH

10:36 PM EST on December 14, 2017 (GMT -0500)
Wright-Patterson Air Force Base

Weather History for KFFO - March, 2013

Change the Weather History Date:

Sunday, March 10, 2013

  Actual Average Record
Temperature  
Mean Temperature 58 °F -  
Max Temperature 67 °F 44 °F 77 °F (2009)
Min Temperature 48 °F 24 °F 10 °F (2003)
Degree Days  
Heating Degree Days 8    
Growing Degree Days 8 (Base 50)    
Moisture  
Dew Point 33 °F    
Average Humidity 40    
Maximum Humidity 55    
Minimum Humidity 23    
Precipitation  
Precipitation 0.00 in - - ()
Sea Level Pressure  
Sea Level Pressure 29.95 in    
Wind  
Wind Speed 10 mph (South)    
Max Wind Speed 21 mph    
Max Gust Speed 28 mph    
Visibility 10 miles    
Events Rain    
Averages and records for this station are not official NWS values.
T = Trace of Precipitation, MM = Missing Value Source: NWS Daily Summary

Daily Weather History Graph

Daily Weather History Graph

Search for Another Location

Airport or City:

Trip Planner

Search our weather history database for the weather conditions in past years. The results will help you decide how hot, cold, wet, or windy it might be!

Date:

Astronomy

Mar. 10, 2013 Rise Set
Actual Time 7:55 AM EDT 7:38 PM EDT
Civil Twilight 7:28 AM EDT 8:05 PM EDT
Nautical Twilight 6:57 AM EDT 8:36 PM EDT
Astronomical Twilight 6:25 AM EDT 9:07 PM EDT
Moon 6:54 AM EDT (3/10) 6:45 PM EDT (3/10)
Length of Visible Light 12h 36m
Length of Day
11h 42m
Waning Crescent, 2% of the Moon is Illuminated
Mar 10
Waning Crescent
Mar 11
New
Mar 19
First Quarter
Mar 27
Full
Apr 3
Last Quarter

Hourly Weather History & Observations

Time (EDT) Temp. Dew Point Humidity Pressure Visibility Wind Dir Wind Speed Gust Speed Precip Events Conditions
12:55 AM 49.3 °F 28.9 °F 45% 30.02 in 10.0 mi SE 9.2 mph - N/A   Mostly Cloudy
1:55 AM 48.7 °F 29.7 °F 48% 30.02 in 10.0 mi SE 3.5 mph - N/A   Mostly Cloudy
3:55 AM 49.3 °F 30.2 °F 48% 30.00 in 10.0 mi South 3.5 mph - N/A   Scattered Clouds
4:55 AM 48.7 °F 31.1 °F 51% 29.99 in 10.0 mi South 5.8 mph - N/A   Mostly Cloudy
5:55 AM 50.0 °F 30.4 °F 47% 30.00 in 10.0 mi SSW 5.8 mph - N/A   Scattered Clouds
6:55 AM 50.5 °F 29.8 °F 45% 30.02 in 10.0 mi SSW 9.2 mph - N/A   Mostly Cloudy
7:55 AM 49.5 °F 30.6 °F 48% 30.02 in 10.0 mi South 8.1 mph - N/A   Mostly Cloudy
8:55 AM 49.8 °F 31.5 °F 49% 30.04 in 10.0 mi South 6.9 mph - N/A   Mostly Cloudy
9:55 AM 53.2 °F 32.0 °F 44% 30.04 in 10.0 mi South 10.4 mph - N/A   Mostly Cloudy
10:55 AM 57.2 °F 31.3 °F 37% 30.02 in 10.0 mi South 10.4 mph - N/A   Mostly Cloudy
10:58 AM 57.2 °F 32.0 °F 38% 30.01 in 10.0 mi South 13.8 mph - N/A   Mostly Cloudy
11:55 AM 59.2 °F 31.5 °F 35% 30.01 in 10.0 mi South 15.0 mph - N/A   Mostly Cloudy
12:55 PM 61.5 °F 31.3 °F 32% 30.01 in 10.0 mi South 17.3 mph 25.3 mph N/A   Mostly Cloudy
1:55 PM 64.8 °F 31.5 °F 29% 29.98 in 10.0 mi South 18.4 mph 26.5 mph N/A   Mostly Cloudy
2:30 PM 66.2 °F 32.0 °F 28% 29.96 in 10.0 mi South 20.7 mph 26.5 mph N/A   Mostly Cloudy
2:55 PM 66.0 °F 29.5 °F 25% 29.96 in 10.0 mi South 19.6 mph 27.6 mph N/A   Mostly Cloudy
3:55 PM 66.4 °F 30.4 °F 26% 29.93 in 10.0 mi South 17.3 mph - N/A   Overcast
4:55 PM 67.1 °F 28.4 °F 23% 29.91 in 10.0 mi SSE 16.1 mph - N/A   Mostly Cloudy
5:55 PM 66.0 °F 29.1 °F 25% 29.91 in 10.0 mi SSE 17.3 mph 25.3 mph N/A   Mostly Cloudy
6:55 PM 63.9 °F 31.3 °F 29% 29.88 in 10.0 mi SE 8.1 mph - N/A   Mostly Cloudy
7:55 PM 60.6 °F 34.0 °F 37% 29.87 in 10.0 mi SE 4.6 mph - N/A   Mostly Cloudy
8:55 PM 59.2 °F 35.2 °F 41% 29.86 in 10.0 mi SE 6.9 mph - N/A   Mostly Cloudy
9:55 PM 59.0 °F 35.4 °F 41% 29.85 in 10.0 mi SE 6.9 mph - N/A   Mostly Cloudy
10:55 PM 58.6 °F 35.1 °F 41% 29.86 in 10.0 mi SSE 6.9 mph - N/A   Mostly Cloudy
11:23 PM 59.0 °F 35.6 °F 42% 29.87 in 10.0 mi South 9.2 mph - N/A Rain Light Rain
11:55 PM 59.0 °F 39.0 °F 48% 29.86 in 10.0 mi South 16.1 mph 27.6 mph 0.00 in Rain Light Rain
12:11 AM 57.2 °F 41.0 °F 55% 29.86 in 10.0 mi South 13.8 mph - N/A Rain Light Rain
12:50 AM 57.2 °F 41.0 °F 55% 29.86 in 10.0 mi South 16.1 mph 23.0 mph N/A   Mostly Cloudy
12:55 AM 57.0 °F 41.2 °F 55% 29.86 in 10.0 mi South 16.1 mph - 0.00 in   Mostly Cloudy